THY2TK HTZA-HTKJ

Flight info

Callsign THY2TK
Flight time 0h 39m
Altitude 30000
Route OKBEM DCT MUMTU ERBEP2A
Aircraft B738/M-SDE2E3FGHIRWXY/LB1

Departure

Time 2026-05-06 16:39
Airport Abeid Amani Karume International Airport (HTZA)

Arrival

Time 2026-05-06 17:18
Airport Kilimanjaro International Airport (HTKJ)
Time Latitude Longitude Altitude Speed Heading
2026-05-06 16:05 -6.21821 39.22197 59 ft 0 kts 264°
2026-05-06 16:31 -6.21821 39.22199 59 ft 2 kts 264°
2026-05-06 16:31 -6.21818 39.22225 51 ft 4 kts 263°
2026-05-06 16:31 -6.21816 39.22252 51 ft 4 kts 269°
2026-05-06 16:32 -6.21817 39.22279 52 ft 4 kts 277°
2026-05-06 16:32 -6.21820 39.22296 57 ft 1 kts 278°
2026-05-06 16:32 -6.21820 39.22299 52 ft 0 kts 278°
2026-05-06 16:34 -6.21814 39.22293 58 ft 3 kts 320°
2026-05-06 16:34 -6.21776 39.22301 57 ft 9 kts 30°
2026-05-06 16:34 -6.21689 39.22308 56 ft 17 kts 355°
2026-05-06 16:35 -6.21554 39.22295 60 ft 15 kts 356°
2026-05-06 16:35 -6.21493 39.22334 58 ft 5 kts 84°
2026-05-06 16:35 -6.21493 39.22372 58 ft 5 kts 89°
2026-05-06 16:35 -6.21471 39.22402 56 ft 6 kts 29°
2026-05-06 16:36 -6.21429 39.22410 56 ft 7 kts
2026-05-06 16:36 -6.21378 39.22407 60 ft 9 kts 355°
2026-05-06 16:36 -6.21303 39.22401 60 ft 13 kts 354°
2026-05-06 16:36 -6.21196 39.22390 58 ft 14 kts 354°
2026-05-06 16:37 -6.21136 39.22371 58 ft 0 kts 351°
2026-05-06 16:37 -6.21135 39.22371 58 ft 0 kts
2026-05-06 16:37 -6.21133 39.22376 62 ft 1 kts 65°
2026-05-06 16:38 -6.21138 39.22382 62 ft 2 kts 131°
2026-05-06 16:38 -6.21158 39.22387 55 ft 4 kts 173°
2026-05-06 16:38 -6.21173 39.22388 57 ft 0 kts 173°
2026-05-06 16:38 -6.21176 39.22389 58 ft 3 kts 173°
2026-05-06 16:39 -6.21365 39.22408 62 ft 62 kts 174°
2026-05-06 16:39 -6.22037 39.22476 58 ft 129 kts 174°
2026-05-06 16:39 -6.23085 39.22607 174 ft 170 kts 170°
2026-05-06 16:39 -6.24208 39.22779 1039 ft 164 kts 174°
2026-05-06 16:40 -6.25394 39.22639 1620 ft 180 kts 197°
2026-05-06 16:40 -6.26415 39.21861 2201 ft 201 kts 236°
2026-05-06 16:40 -6.26759 39.20456 2721 ft 215 kts 270°
2026-05-06 16:40 -6.26445 39.18964 3293 ft 222 kts 291°
2026-05-06 16:41 -6.25610 39.17584 3589 ft 248 kts 314°
2026-05-06 16:41 -6.24243 39.16380 3892 ft 273 kts 320°
2026-05-06 16:41 -6.22755 39.15145 4553 ft 281 kts 320°
2026-05-06 16:41 -6.21241 39.13888 5367 ft 283 kts 320°
2026-05-06 16:42 -6.19718 39.12612 6182 ft 286 kts 320°
2026-05-06 16:42 -6.18186 39.11317 6927 ft 290 kts 320°
2026-05-06 16:42 -6.16640 39.10002 7692 ft 291 kts 320°
2026-05-06 16:42 -6.15088 39.08675 8444 ft 295 kts 320°
2026-05-06 16:43 -6.13511 39.07322 9172 ft 299 kts 320°
2026-05-06 16:43 -6.11933 39.05965 10000 ft 299 kts 320°
2026-05-06 16:43 -6.10328 39.04582 10463 ft 313 kts 320°
2026-05-06 16:43 -6.08613 39.03105 10636 ft 336 kts 320°
2026-05-06 16:44 -6.06796 39.01539 10974 ft 349 kts 320°
2026-05-06 16:44 -6.04941 38.99937 11586 ft 353 kts 320°
2026-05-06 16:44 -6.03080 38.98330 12317 ft 353 kts 320°
2026-05-06 16:44 -6.01214 38.96718 13000 ft 355 kts 320°
2026-05-06 16:45 -5.99338 38.95097 13641 ft 357 kts 320°
2026-05-06 16:45 -5.97448 38.93465 14215 ft 360 kts 320°
2026-05-06 16:45 -5.95540 38.91817 14711 ft 364 kts 320°
2026-05-06 16:45 -5.93610 38.90152 15241 ft 368 kts 320°
2026-05-06 16:46 -5.91658 38.88467 15777 ft 371 kts 320°
2026-05-06 16:46 -5.89690 38.86769 16295 ft 374 kts 320°
2026-05-06 16:46 -5.87733 38.85079 16798 ft 378 kts 320°
2026-05-06 16:46 -5.85732 38.83352 17306 ft 381 kts 320°
2026-05-06 16:47 -5.83709 38.81607 17815 ft 385 kts 320°
2026-05-06 16:47 -5.81670 38.79847 18303 ft 388 kts 320°
2026-05-06 16:47 -5.79611 38.78071 18726 ft 392 kts 320°
2026-05-06 16:47 -5.77533 38.76279 19140 ft 395 kts 320°
2026-05-06 16:48 -5.75440 38.74473 19548 ft 398 kts 320°
2026-05-06 16:48 -5.73331 38.72654 19962 ft 402 kts 320°
2026-05-06 16:48 -5.71203 38.70818 20362 ft 405 kts 320°
2026-05-06 16:48 -5.69056 38.68967 20758 ft 408 kts 320°
2026-05-06 16:49 -5.66896 38.67103 21152 ft 411 kts 321°
2026-05-06 16:49 -5.64715 38.65222 21532 ft 414 kts 321°
2026-05-06 16:49 -5.62519 38.63329 21911 ft 417 kts 321°
2026-05-06 16:49 -5.60322 38.61412 22288 ft 421 kts 318°
2026-05-06 16:50 -5.58258 38.59307 22676 ft 424 kts 314°
2026-05-06 16:50 -5.56253 38.57114 23040 ft 427 kts 313°
2026-05-06 16:50 -5.54268 38.54898 23521 ft 427 kts 313°
2026-05-06 16:50 -5.52285 38.52682 23881 ft 428 kts 313°
2026-05-06 16:51 -5.50290 38.50465 23945 ft 428 kts 313°
2026-05-06 16:51 -5.48287 38.48253 23976 ft 429 kts 314°
2026-05-06 16:51 -5.46271 38.46038 23981 ft 429 kts 314°
2026-05-06 16:51 -5.44258 38.43832 23991 ft 429 kts 314°
2026-05-06 16:52 -5.42237 38.41621 23991 ft 429 kts 314°
2026-05-06 16:52 -5.40218 38.39413 23991 ft 429 kts 314°
2026-05-06 16:52 -5.38228 38.37236 23990 ft 429 kts 314°
2026-05-06 16:52 -5.36211 38.35030 23993 ft 429 kts 314°
2026-05-06 16:53 -5.34190 38.32820 23994 ft 429 kts 314°
2026-05-06 16:53 -5.32175 38.30616 23996 ft 429 kts 314°
2026-05-06 16:53 -5.30147 38.28398 24006 ft 434 kts 314°
2026-05-06 16:53 -5.28089 38.26148 24006 ft 442 kts 314°
2026-05-06 16:54 -5.25997 38.23861 24009 ft 448 kts 314°
2026-05-06 16:54 -5.23872 38.21536 24011 ft 454 kts 314°
2026-05-06 16:54 -5.21722 38.19186 24010 ft 460 kts 314°
2026-05-06 16:54 -5.19503 38.16850 24003 ft 464 kts 319°
2026-05-06 16:55 -5.17011 38.14773 24012 ft 467 kts 322°
2026-05-06 16:55 -5.14453 38.12745 24007 ft 471 kts 323°
2026-05-06 16:55 -5.11865 38.10711 24005 ft 475 kts 323°
2026-05-06 16:55 -5.09261 38.08660 24005 ft 478 kts 323°
2026-05-06 16:56 -5.06649 38.06592 24007 ft 480 kts 323°
2026-05-06 16:56 -5.04018 38.04498 24007 ft 483 kts 322°
2026-05-06 16:56 -5.01385 38.02396 24007 ft 485 kts 322°
2026-05-06 16:56 -4.98745 38.00282 24006 ft 487 kts 322°
2026-05-06 16:57 -4.96093 37.98157 24007 ft 488 kts 322°
2026-05-06 16:57 -4.93434 37.96025 24004 ft 490 kts 322°
2026-05-06 16:57 -4.90769 37.93890 24001 ft 491 kts 322°
2026-05-06 16:57 -4.88099 37.91751 24005 ft 492 kts 322°
2026-05-06 16:58 -4.85418 37.89603 24002 ft 493 kts 322°
2026-05-06 16:58 -4.82737 37.87457 24000 ft 494 kts 322°
2026-05-06 16:58 -4.80048 37.85304 24002 ft 494 kts 322°
2026-05-06 16:58 -4.77359 37.83152 24002 ft 495 kts 322°
2026-05-06 16:59 -4.74668 37.80999 24003 ft 496 kts 322°
2026-05-06 16:59 -4.71970 37.78840 24002 ft 496 kts 322°
2026-05-06 16:59 -4.69267 37.76677 24006 ft 497 kts 322°
2026-05-06 16:59 -4.66568 37.74518 24006 ft 497 kts 322°
2026-05-06 17:00 -4.63866 37.72356 24010 ft 497 kts 322°
2026-05-06 17:00 -4.61160 37.70192 24012 ft 498 kts 322°
2026-05-06 17:00 -4.58456 37.68029 24009 ft 498 kts 322°
2026-05-06 17:00 -4.55749 37.65865 24009 ft 498 kts 322°
2026-05-06 17:01 -4.53039 37.63698 24009 ft 498 kts 322°
2026-05-06 17:01 -4.50339 37.61538 24005 ft 491 kts 322°
2026-05-06 17:01 -4.47727 37.59448 23996 ft 470 kts 322°
2026-05-06 17:01 -4.45257 37.57471 23996 ft 451 kts 322°
2026-05-06 17:02 -4.42854 37.55548 23991 ft 433 kts 322°
2026-05-06 17:02 -4.40539 37.53697 23977 ft 418 kts 323°
2026-05-06 17:02 -4.38303 37.51910 23954 ft 405 kts 323°
2026-05-06 17:02 -4.36095 37.50146 23964 ft 410 kts 323°
2026-05-06 17:03 -4.33827 37.48338 23775 ft 426 kts 323°
2026-05-06 17:03 -4.31466 37.46456 23438 ft 443 kts 323°
2026-05-06 17:03 -4.29041 37.44521 22884 ft 445 kts 322°
2026-05-06 17:03 -4.26638 37.42600 22346 ft 440 kts 322°
2026-05-06 17:04 -4.24257 37.40697 21827 ft 435 kts 323°
2026-05-06 17:04 -4.21899 37.38812 21313 ft 431 kts 323°
2026-05-06 17:04 -4.19561 37.36943 20797 ft 428 kts 323°
2026-05-06 17:04 -4.17245 37.35093 20284 ft 424 kts 323°
2026-05-06 17:05 -4.14951 37.33261 19786 ft 420 kts 323°
2026-05-06 17:05 -4.12669 37.31438 19260 ft 418 kts 323°
2026-05-06 17:05 -4.10403 37.29630 18751 ft 415 kts 323°
2026-05-06 17:05 -4.08153 37.27833 18222 ft 412 kts 323°
2026-05-06 17:06 -4.05920 37.26050 17655 ft 409 kts 323°
2026-05-06 17:06 -4.03705 37.24281 17139 ft 405 kts 323°
2026-05-06 17:06 -4.02248 37.23119 16811 ft 402 kts 323°
2026-05-06 17:06 -4.00076 37.21385 16306 ft 398 kts 323°
2026-05-06 17:07 -3.97922 37.19666 15821 ft 394 kts 323°
2026-05-06 17:07 -3.95792 37.17967 15327 ft 390 kts 322°
2026-05-06 17:07 -3.93679 37.16281 14855 ft 387 kts 322°
2026-05-06 17:07 -3.91585 37.14610 14378 ft 383 kts 322°
2026-05-06 17:08 -3.89507 37.12952 13890 ft 381 kts 322°
2026-05-06 17:08 -3.87444 37.11305 13364 ft 378 kts 322°
2026-05-06 17:08 -3.85398 37.09672 12863 ft 374 kts 322°
2026-05-06 17:08 -3.83371 37.08056 12384 ft 371 kts 322°
2026-05-06 17:09 -3.81360 37.06452 11913 ft 367 kts 322°
2026-05-06 17:09 -3.79368 37.04862 11449 ft 364 kts 322°
2026-05-06 17:09 -3.77419 37.03307 11020 ft 361 kts 322°
2026-05-06 17:09 -3.75488 37.01767 10891 ft 349 kts 322°
2026-05-06 17:10 -3.73616 37.00274 10724 ft 339 kts 322°
2026-05-06 17:10 -3.71800 36.98825 10582 ft 329 kts 322°
2026-05-06 17:10 -3.70034 36.97417 10435 ft 320 kts 322°
2026-05-06 17:10 -3.68332 36.96060 10308 ft 311 kts 322°
2026-05-06 17:11 -3.66663 36.94729 10181 ft 302 kts 322°
2026-05-06 17:11 -3.65044 36.93437 10058 ft 294 kts 322°
2026-05-06 17:11 -3.63451 36.92167 9783 ft 292 kts 322°
2026-05-06 17:11 -3.61863 36.90901 9476 ft 291 kts 322°
2026-05-06 17:12 -3.60289 36.89647 9256 ft 286 kts 322°
2026-05-06 17:12 -3.58752 36.88422 9130 ft 279 kts 322°
2026-05-06 17:12 -3.57155 36.87392 8948 ft 271 kts 341°
2026-05-06 17:12 -3.55308 36.87079 8629 ft 269 kts 359°
2026-05-06 17:13 -3.53431 36.87013 8297 ft 271 kts 359°
2026-05-06 17:13 -3.51537 36.86947 7949 ft 273 kts 359°
2026-05-06 17:13 -3.49623 36.86873 7594 ft 276 kts 359°
2026-05-06 17:13 -3.47708 36.86795 7228 ft 275 kts 359°
2026-05-06 17:14 -3.45811 36.86807 6847 ft 270 kts 13°
2026-05-06 17:14 -3.44197 36.87641 6405 ft 260 kts 49°
2026-05-06 17:14 -3.43433 36.89167 6110 ft 238 kts 86°
2026-05-06 17:14 -3.43492 36.90743 5822 ft 219 kts 95°
2026-05-06 17:15 -3.43564 36.92208 5544 ft 203 kts 91°
2026-05-06 17:15 -3.43538 36.93565 5290 ft 188 kts 89°
2026-05-06 17:15 -3.43485 36.94819 5071 ft 173 kts 89°
2026-05-06 17:15 -3.43434 36.95982 4872 ft 162 kts 89°
2026-05-06 17:16 -3.43388 36.97053 4678 ft 151 kts 89°
2026-05-06 17:16 -3.43343 36.98087 4457 ft 147 kts 88°
2026-05-06 17:16 -3.43299 36.99125 4268 ft 152 kts 88°
2026-05-06 17:16 -3.43254 37.00187 4077 ft 152 kts 87°
2026-05-06 17:17 -3.43208 37.01240 3870 ft 151 kts 86°
2026-05-06 17:17 -3.43162 37.02307 3672 ft 156 kts 86°
2026-05-06 17:17 -3.43117 37.03388 3483 ft 154 kts 84°
2026-05-06 17:17 -3.43073 37.04453 3326 ft 154 kts 89°
2026-05-06 17:18 -3.43037 37.05523 3059 ft 153 kts 84°
2026-05-06 17:18 -3.42993 37.06573 2959 ft 151 kts 84°
2026-05-06 17:18 -3.42935 37.07547 2935 ft 123 kts 88°
2026-05-06 17:18 -3.42911 37.08129 2929 ft 37 kts 87°
2026-05-06 17:19 -3.42900 37.08377 2930 ft 34 kts 87°
2026-05-06 17:19 -3.42889 37.08604 2928 ft 32 kts 87°
2026-05-06 17:19 -3.42880 37.08818 2925 ft 30 kts 87°
2026-05-06 17:19 -3.42870 37.08982 2922 ft 17 kts 72°
2026-05-06 17:20 -3.42853 37.09039 2921 ft 4 kts 126°
2026-05-06 17:20 -3.42877 37.09030 2922 ft 4 kts 246°
2026-05-06 17:20 -3.42873 37.08999 2922 ft 4 kts 280°
2026-05-06 17:20 -3.42875 37.08962 2923 ft 7 kts 265°
2026-05-06 17:21 -3.42880 37.08896 2924 ft 12 kts 266°
2026-05-06 17:21 -3.42887 37.08797 2919 ft 17 kts 266°
2026-05-06 17:21 -3.42896 37.08669 2926 ft 20 kts 266°
2026-05-06 17:21 -3.42899 37.08518 2922 ft 23 kts 272°
2026-05-06 17:22 -3.42903 37.08349 2930 ft 26 kts 268°
2026-05-06 17:22 -3.42907 37.08218 2930 ft 20 kts 268°
2026-05-06 17:22 -3.42915 37.08067 2931 ft 23 kts 266°
2026-05-06 17:22 -3.42922 37.07938 2932 ft 20 kts 266°
2026-05-06 17:23 -3.42931 37.07784 2935 ft 24 kts 267°
2026-05-06 17:23 -3.42941 37.07606 2933 ft 25 kts 265°
2026-05-06 17:23 -3.42943 37.07423 2934 ft 26 kts 267°
2026-05-06 17:23 -3.42952 37.07251 2936 ft 24 kts 268°
2026-05-06 17:24 -3.42956 37.07107 2937 ft 16 kts 266°
2026-05-06 17:24 -3.42960 37.06997 2941 ft 15 kts 269°
2026-05-06 17:24 -3.42963 37.06893 2943 ft 15 kts 267°
2026-05-06 17:24 -3.42966 37.06794 2944 ft 13 kts 277°
2026-05-06 17:25 -3.42956 37.06775 2945 ft 1 kts 323°
2026-05-06 17:25 -3.42949 37.06778 2940 ft 1 kts 32°
2026-05-06 17:25 -3.42936 37.06791 2943 ft 4 kts 43°
2026-05-06 17:25 -3.42914 37.06816 2944 ft 6 kts 53°
2026-05-06 17:26 -3.42885 37.06855 2944 ft 8 kts 53°
2026-05-06 17:26 -3.42854 37.06910 2943 ft 10 kts 63°
2026-05-06 17:26 -3.42797 37.06933 2938 ft 11 kts 325°
2026-05-06 17:26 -3.42745 37.06878 2943 ft 11 kts 310°
2026-05-06 17:27 -3.42738 37.06870 2942 ft 2 kts 310°
2026-05-06 17:27 -3.42729 37.06858 2943 ft 3 kts 306°
2026-05-06 17:27 -3.42719 37.06836 2943 ft 5 kts 284°
2026-05-06 17:27 -3.42717 37.06789 2943 ft 7 kts 270°
2026-05-06 17:28 -3.42718 37.06739 2944 ft 7 kts 270°
2026-05-06 17:28 -3.42719 37.06690 2944 ft 7 kts 267°
2026-05-06 17:28 -3.42722 37.06644 2945 ft 7 kts 267°
2026-05-06 17:28 -3.42724 37.06597 2944 ft 7 kts 267°
2026-05-06 17:29 -3.42726 37.06543 2945 ft 9 kts 268°
2026-05-06 17:29 -3.42722 37.06465 2942 ft 13 kts 292°
2026-05-06 17:29 -3.42634 37.06434 2946 ft 13 kts 356°
2026-05-06 17:29 -3.42590 37.06390 2944 ft 8 kts 274°
2026-05-06 17:30 -3.42586 37.06380 2947 ft 1 kts 306°
2026-05-06 17:30 -3.42582 37.06377 2947 ft 1 kts 321°
2026-05-06 17:30 -3.42576 37.06374 2942 ft 2 kts 336°
2026-05-06 17:30 -3.42557 37.06370 2947 ft 0 kts 349°
2026-05-06 17:31 -3.42543 37.06372 2944 ft 3 kts 17°
2026-05-06 17:31 -3.42539 37.06375 2944 ft 0 kts 35°
2026-05-06 17:31 -3.42534 37.06379 2947 ft 0 kts 38°